VOZ9264 YBRM-YANG

Flight info

Callsign VOZ9264
Flight time 1h 9m
Altitude 30000
Route BRM Q38 LOTVI
Aircraft A320/M-SDE3FGHIM3RWYZ/LB1

Departure

Time 2026-05-06 10:16
Airport Broome International Airport (YBRM)

Arrival

Time 2026-05-06 11:25
Airport West Angelas Airport (YANG)
Time Latitude Longitude Altitude Speed Heading
2026-05-06 09:36 -17.95223 122.23348 47 ft 0 kts 72°
2026-05-06 10:06 -17.95224 122.23347 47 ft 1 kts 73°
2026-05-06 10:06 -17.95228 122.23332 47 ft 2 kts 72°
2026-05-06 10:06 -17.95231 122.23320 47 ft 0 kts 73°
2026-05-06 10:06 -17.95237 122.23308 48 ft 2 kts 39°
2026-05-06 10:07 -17.95246 122.23302 48 ft 0 kts 17°
2026-05-06 10:07 -17.95241 122.23304 48 ft 3 kts 19°
2026-05-06 10:07 -17.95231 122.23307 48 ft 0 kts 14°
2026-05-06 10:10 -17.95227 122.23308 48 ft 1 kts 14°
2026-05-06 10:11 -17.95208 122.23318 48 ft 4 kts 37°
2026-05-06 10:11 -17.95184 122.23354 47 ft 5 kts 55°
2026-05-06 10:11 -17.95154 122.23372 46 ft 3 kts 14°
2026-05-06 10:11 -17.95141 122.23375 46 ft 0 kts 14°
2026-05-06 10:12 -17.95138 122.23376 46 ft 1 kts 14°
2026-05-06 10:13 -17.95122 122.23380 46 ft 3 kts 13°
2026-05-06 10:13 -17.95090 122.23388 46 ft 6 kts 13°
2026-05-06 10:13 -17.95063 122.23427 45 ft 9 kts 94°
2026-05-06 10:13 -17.95085 122.23516 42 ft 16 kts 105°
2026-05-06 10:14 -17.95121 122.23649 38 ft 18 kts 107°
2026-05-06 10:14 -17.95129 122.23737 37 ft 8 kts 78°
2026-05-06 10:14 -17.95140 122.23770 36 ft 5 kts 216°
2026-05-06 10:14 -17.95143 122.23743 37 ft 0 kts 284°
2026-05-06 10:15 -17.95116 122.23635 38 ft 45 kts 285°
2026-05-06 10:15 -17.94975 122.23091 53 ft 106 kts 285°
2026-05-06 10:15 -17.94721 122.22147 74 ft 157 kts 285°
2026-05-06 10:16 -17.94400 122.20985 399 ft 172 kts 285°
2026-05-06 10:16 -17.94070 122.19781 984 ft 174 kts 286°
2026-05-06 10:16 -17.93746 122.18559 1580 ft 176 kts 287°
2026-05-06 10:16 -17.93587 122.17290 2132 ft 175 kts 268°
2026-05-06 10:17 -17.93800 122.16013 2518 ft 184 kts 257°
2026-05-06 10:17 -17.94440 122.14810 2784 ft 201 kts 222°
2026-05-06 10:17 -17.95726 122.14095 3072 ft 215 kts 200°
2026-05-06 10:17 -17.97180 122.13560 3364 ft 231 kts 200°
2026-05-06 10:18 -17.98781 122.12894 3599 ft 255 kts 203°
2026-05-06 10:18 -18.00429 122.12092 3973 ft 272 kts 206°
2026-05-06 10:18 -18.02152 122.11172 4562 ft 281 kts 207°
2026-05-06 10:18 -18.03906 122.10186 5329 ft 284 kts 208°
2026-05-06 10:19 -18.05634 122.09190 6106 ft 286 kts 208°
2026-05-06 10:19 -18.07388 122.08164 6877 ft 289 kts 208°
2026-05-06 10:19 -18.09140 122.07136 7646 ft 292 kts 209°
2026-05-06 10:19 -18.10913 122.06087 8419 ft 294 kts 209°
2026-05-06 10:20 -18.12698 122.05030 9161 ft 297 kts 209°
2026-05-06 10:20 -18.14502 122.03960 9891 ft 299 kts 210°
2026-05-06 10:20 -18.16324 122.02880 10493 ft 305 kts 210°
2026-05-06 10:20 -18.18230 122.01746 10809 ft 322 kts 210°
2026-05-06 10:21 -18.20236 122.00552 11096 ft 338 kts 210°
2026-05-06 10:21 -18.22338 121.99299 11534 ft 348 kts 210°
2026-05-06 10:21 -18.24443 121.98047 12153 ft 350 kts 210°
2026-05-06 10:21 -18.26578 121.96775 12783 ft 352 kts 211°
2026-05-06 10:22 -18.28707 121.95509 13382 ft 354 kts 211°
2026-05-06 10:22 -18.30875 121.94218 13984 ft 356 kts 211°
2026-05-06 10:22 -18.33018 121.92943 14556 ft 358 kts 212°
2026-05-06 10:22 -18.35212 121.91634 15124 ft 359 kts 212°
2026-05-06 10:23 -18.37387 121.90338 15674 ft 361 kts 212°
2026-05-06 10:23 -18.39584 121.89026 16215 ft 362 kts 213°
2026-05-06 10:23 -18.41762 121.87725 16711 ft 364 kts 213°
2026-05-06 10:23 -18.44006 121.86384 17229 ft 366 kts 213°
2026-05-06 10:24 -18.46248 121.85044 17733 ft 367 kts 213°
2026-05-06 10:24 -18.48465 121.83720 18224 ft 369 kts 213°
2026-05-06 10:24 -18.50729 121.82367 18700 ft 371 kts 213°
2026-05-06 10:24 -18.52982 121.81018 19156 ft 373 kts 214°
2026-05-06 10:25 -18.55259 121.79656 19606 ft 375 kts 214°
2026-05-06 10:25 -18.57538 121.78293 20059 ft 377 kts 214°
2026-05-06 10:25 -18.59805 121.76936 20488 ft 379 kts 214°
2026-05-06 10:25 -18.62129 121.75545 20923 ft 380 kts 214°
2026-05-06 10:26 -18.64431 121.74166 21372 ft 381 kts 214°
2026-05-06 10:26 -18.66752 121.72774 21803 ft 382 kts 214°
2026-05-06 10:26 -18.69070 121.71385 22219 ft 384 kts 215°
2026-05-06 10:26 -18.71384 121.69998 22616 ft 385 kts 215°
2026-05-06 10:27 -18.73738 121.68587 23022 ft 386 kts 215°
2026-05-06 10:27 -18.76073 121.67220 23399 ft 389 kts 213°
2026-05-06 10:27 -18.78572 121.65989 23768 ft 394 kts 209°
2026-05-06 10:27 -18.81170 121.64969 24126 ft 399 kts 205°
2026-05-06 10:28 -18.83855 121.64122 24479 ft 402 kts 203°
2026-05-06 10:28 -18.86558 121.63313 24810 ft 404 kts 203°
2026-05-06 10:28 -18.89288 121.62502 25148 ft 406 kts 203°
2026-05-06 10:28 -18.92009 121.61695 25478 ft 407 kts 203°
2026-05-06 10:29 -18.94774 121.60870 25795 ft 409 kts 203°
2026-05-06 10:29 -18.97518 121.60053 26128 ft 410 kts 203°
2026-05-06 10:29 -19.00246 121.59238 26440 ft 411 kts 204°
2026-05-06 10:29 -19.03042 121.58404 26748 ft 413 kts 204°
2026-05-06 10:30 -19.05806 121.57577 27060 ft 414 kts 204°
2026-05-06 10:30 -19.08587 121.56747 27366 ft 415 kts 204°
2026-05-06 10:30 -19.11405 121.55904 27649 ft 417 kts 204°
2026-05-06 10:30 -19.14209 121.55065 27932 ft 419 kts 204°
2026-05-06 10:31 -19.17045 121.54216 28218 ft 420 kts 204°
2026-05-06 10:31 -19.19862 121.53372 28505 ft 421 kts 204°
2026-05-06 10:31 -19.22672 121.52531 28767 ft 423 kts 204°
2026-05-06 10:31 -19.25529 121.51677 29025 ft 424 kts 204°
2026-05-06 10:32 -19.28416 121.50809 29300 ft 425 kts 204°
2026-05-06 10:32 -19.31249 121.49960 29592 ft 425 kts 204°
2026-05-06 10:32 -19.34137 121.49095 29842 ft 425 kts 204°
2026-05-06 10:32 -19.36975 121.48244 29933 ft 425 kts 204°
2026-05-06 10:33 -19.42706 121.46523 29941 ft 425 kts 205°
2026-05-06 10:33 -19.48430 121.44802 29958 ft 424 kts 204°
2026-05-06 10:34 -19.54106 121.43096 29950 ft 425 kts 204°
2026-05-06 10:34 -19.59819 121.41376 29951 ft 425 kts 204°
2026-05-06 10:35 -19.65516 121.39661 29966 ft 424 kts 204°
2026-05-06 10:35 -19.71208 121.37946 29953 ft 424 kts 204°
2026-05-06 10:36 -19.76900 121.36183 29951 ft 421 kts 207°
2026-05-06 10:36 -19.82264 121.33762 29956 ft 412 kts 216°
2026-05-06 10:37 -19.87114 121.30559 29954 ft 404 kts 223°
2026-05-06 10:37 -19.91649 121.27068 29944 ft 403 kts 223°
2026-05-06 10:38 -19.96199 121.23543 29955 ft 403 kts 223°
2026-05-06 10:38 -20.00737 121.20025 29958 ft 403 kts 223°
2026-05-06 10:39 -20.05281 121.16500 29952 ft 403 kts 223°
2026-05-06 10:39 -20.09821 121.12973 29956 ft 403 kts 223°
2026-05-06 10:40 -20.14373 121.09435 29964 ft 403 kts 223°
2026-05-06 10:40 -20.18924 121.05896 29962 ft 404 kts 223°
2026-05-06 10:41 -20.23456 121.02368 29971 ft 403 kts 223°
2026-05-06 10:41 -20.27980 120.98846 29976 ft 403 kts 223°
2026-05-06 10:42 -20.32510 120.95313 29973 ft 403 kts 223°
2026-05-06 10:42 -20.37060 120.91766 29980 ft 403 kts 223°
2026-05-06 10:43 -20.41587 120.88234 29985 ft 404 kts 223°
2026-05-06 10:44 -20.48403 120.82907 29986 ft 404 kts 223°
2026-05-06 10:44 -20.52931 120.79366 29990 ft 403 kts 223°
2026-05-06 10:45 -20.57464 120.75819 29989 ft 404 kts 223°
2026-05-06 10:45 -20.61988 120.72275 29992 ft 404 kts 223°
2026-05-06 10:46 -20.66541 120.68705 29993 ft 404 kts 223°
2026-05-06 10:46 -20.71087 120.65139 29992 ft 405 kts 223°
2026-05-06 10:47 -20.75643 120.61563 29987 ft 404 kts 223°
2026-05-06 10:47 -20.80210 120.57976 29994 ft 404 kts 223°
2026-05-06 10:48 -20.84731 120.54420 30004 ft 404 kts 222°
2026-05-06 10:48 -20.89246 120.50868 30006 ft 404 kts 222°
2026-05-06 10:49 -20.93812 120.47274 30013 ft 404 kts 222°
2026-05-06 10:49 -20.98331 120.43713 30017 ft 404 kts 223°
2026-05-06 10:50 -21.02876 120.40130 30020 ft 404 kts 223°
2026-05-06 10:50 -21.07398 120.36559 30027 ft 404 kts 222°
2026-05-06 10:51 -21.11949 120.32964 30028 ft 404 kts 223°
2026-05-06 10:51 -21.16473 120.29388 30037 ft 404 kts 223°
2026-05-06 10:52 -21.21019 120.25793 30044 ft 405 kts 223°
2026-05-06 10:52 -21.25568 120.22192 29816 ft 404 kts 223°
2026-05-06 10:52 -21.27823 120.20404 29587 ft 403 kts 222°
2026-05-06 10:53 -21.30064 120.18630 29358 ft 403 kts 222°
2026-05-06 10:53 -21.32319 120.16841 29123 ft 402 kts 222°
2026-05-06 10:53 -21.34586 120.15041 28889 ft 402 kts 222°
2026-05-06 10:53 -21.36827 120.13264 28651 ft 401 kts 222°
2026-05-06 10:54 -21.39068 120.11484 28411 ft 400 kts 222°
2026-05-06 10:54 -21.41330 120.09688 28171 ft 400 kts 222°
2026-05-06 10:54 -21.43557 120.07918 27937 ft 399 kts 221°
2026-05-06 10:54 -21.45793 120.06141 27695 ft 398 kts 221°
2026-05-06 10:55 -21.48021 120.04369 27450 ft 397 kts 221°
2026-05-06 10:55 -21.50238 120.02605 27213 ft 396 kts 221°
2026-05-06 10:55 -21.52453 120.00843 26974 ft 396 kts 221°
2026-05-06 10:55 -21.54640 119.99102 26738 ft 395 kts 221°
2026-05-06 10:56 -21.56865 119.97330 26499 ft 394 kts 221°
2026-05-06 10:56 -21.59071 119.95573 26265 ft 394 kts 221°
2026-05-06 10:56 -21.61276 119.93815 26023 ft 394 kts 221°
2026-05-06 10:56 -21.63474 119.92062 25780 ft 393 kts 221°
2026-05-06 10:57 -21.65664 119.90315 25545 ft 392 kts 220°
2026-05-06 10:57 -21.67865 119.88560 25310 ft 392 kts 220°
2026-05-06 10:57 -21.70049 119.86816 25074 ft 391 kts 220°
2026-05-06 10:57 -21.72236 119.85070 24833 ft 390 kts 220°
2026-05-06 10:58 -21.74439 119.83309 24589 ft 390 kts 220°
2026-05-06 10:58 -21.76612 119.81574 24343 ft 389 kts 220°
2026-05-06 10:58 -21.78789 119.79836 24097 ft 388 kts 220°
2026-05-06 10:58 -21.80965 119.78095 23848 ft 387 kts 219°
2026-05-06 10:59 -21.83109 119.76380 23482 ft 386 kts 219°
2026-05-06 10:59 -21.85262 119.74657 23115 ft 385 kts 219°
2026-05-06 10:59 -21.87432 119.72918 22744 ft 384 kts 219°
2026-05-06 10:59 -21.89568 119.71206 22367 ft 384 kts 219°
2026-05-06 11:00 -21.91696 119.69501 21980 ft 381 kts 219°
2026-05-06 11:00 -21.93833 119.67788 21467 ft 378 kts 219°
2026-05-06 11:00 -21.95922 119.66111 20889 ft 378 kts 218°
2026-05-06 11:00 -21.98023 119.64424 20329 ft 377 kts 218°
2026-05-06 11:01 -22.00137 119.62728 19807 ft 374 kts 218°
2026-05-06 11:01 -22.02219 119.61056 19293 ft 372 kts 218°
2026-05-06 11:01 -22.04269 119.59411 18793 ft 370 kts 218°
2026-05-06 11:01 -22.06345 119.57744 18282 ft 368 kts 218°
2026-05-06 11:02 -22.08395 119.56097 17776 ft 367 kts 218°
2026-05-06 11:02 -22.10423 119.54465 17275 ft 365 kts 217°
2026-05-06 11:02 -22.12468 119.52821 16783 ft 363 kts 217°
2026-05-06 11:02 -22.14491 119.51194 16311 ft 361 kts 217°
2026-05-06 11:03 -22.16498 119.49580 15835 ft 359 kts 217°
2026-05-06 11:03 -22.18488 119.47978 15355 ft 357 kts 217°
2026-05-06 11:03 -22.20486 119.46370 14864 ft 356 kts 217°
2026-05-06 11:03 -22.22465 119.44775 14388 ft 355 kts 217°
2026-05-06 11:04 -22.24451 119.43174 13895 ft 354 kts 217°
2026-05-06 11:04 -22.26423 119.41590 13421 ft 353 kts 217°
2026-05-06 11:04 -22.28381 119.39986 12954 ft 352 kts 221°
2026-05-06 11:04 -22.30078 119.38094 12476 ft 351 kts 229°
2026-05-06 11:05 -22.31653 119.36077 12008 ft 350 kts 230°
2026-05-06 11:05 -22.33184 119.34057 11543 ft 350 kts 231°
2026-05-06 11:05 -22.34720 119.32008 11060 ft 350 kts 231°
2026-05-06 11:05 -22.36247 119.29952 10654 ft 347 kts 231°
2026-05-06 11:06 -22.37727 119.27945 10412 ft 340 kts 231°
2026-05-06 11:06 -22.39191 119.25951 10169 ft 333 kts 231°
2026-05-06 11:06 -22.40604 119.24016 9983 ft 324 kts 231°
2026-05-06 11:06 -22.41956 119.22152 9964 ft 310 kts 231°
2026-05-06 11:07 -22.43284 119.20312 9966 ft 307 kts 231°
2026-05-06 11:07 -22.44598 119.18491 9968 ft 308 kts 231°
2026-05-06 11:07 -22.45929 119.16643 9967 ft 308 kts 231°
2026-05-06 11:07 -22.47242 119.14822 9968 ft 308 kts 231°
2026-05-06 11:08 -22.48565 119.12987 9969 ft 308 kts 231°
2026-05-06 11:08 -22.49885 119.11155 9971 ft 309 kts 231°
2026-05-06 11:08 -22.51203 119.09322 9976 ft 308 kts 231°
2026-05-06 11:08 -22.52526 119.07484 9979 ft 308 kts 231°
2026-05-06 11:09 -22.53835 119.05666 9983 ft 308 kts 231°
2026-05-06 11:09 -22.55159 119.03822 9985 ft 308 kts 231°
2026-05-06 11:09 -22.56469 119.01999 9984 ft 308 kts 231°
2026-05-06 11:09 -22.57793 119.00154 9983 ft 308 kts 231°
2026-05-06 11:10 -22.59102 118.98322 9981 ft 308 kts 231°
2026-05-06 11:10 -22.60416 118.96485 9981 ft 308 kts 231°
2026-05-06 11:10 -22.61733 118.94647 9982 ft 308 kts 231°
2026-05-06 11:10 -22.63049 118.92808 9983 ft 308 kts 231°
2026-05-06 11:11 -22.64371 118.90962 9988 ft 308 kts 231°
2026-05-06 11:11 -22.65678 118.89134 9993 ft 309 kts 231°
2026-05-06 11:11 -22.67001 118.87281 9995 ft 308 kts 231°
2026-05-06 11:11 -22.68319 118.85435 9998 ft 308 kts 231°
2026-05-06 11:12 -22.69629 118.83603 9999 ft 308 kts 231°
2026-05-06 11:12 -22.70941 118.81767 9999 ft 308 kts 231°
2026-05-06 11:12 -22.72263 118.79921 9997 ft 308 kts 231°
2026-05-06 11:12 -22.73572 118.78092 9998 ft 307 kts 231°
2026-05-06 11:13 -22.74941 118.76293 9785 ft 306 kts 225°
2026-05-06 11:13 -22.76457 118.74669 9545 ft 305 kts 221°
2026-05-06 11:13 -22.77995 118.73096 9307 ft 304 kts 221°
2026-05-06 11:13 -22.79533 118.71533 9070 ft 303 kts 221°
2026-05-06 11:14 -22.81060 118.69979 8831 ft 302 kts 220°
2026-05-06 11:14 -22.82611 118.68386 8590 ft 302 kts 220°
2026-05-06 11:14 -22.84112 118.66835 8366 ft 301 kts 221°
2026-05-06 11:14 -22.85641 118.65251 8198 ft 301 kts 221°
2026-05-06 11:15 -22.87158 118.63674 8030 ft 300 kts 221°
2026-05-06 11:15 -22.88661 118.62099 7862 ft 300 kts 221°
2026-05-06 11:15 -22.90158 118.60528 7696 ft 299 kts 221°
2026-05-06 11:15 -22.91659 118.58948 7527 ft 299 kts 220°
2026-05-06 11:16 -22.93149 118.57371 7358 ft 298 kts 221°
2026-05-06 11:16 -22.94615 118.55814 7192 ft 298 kts 220°
2026-05-06 11:16 -22.96108 118.54224 7044 ft 297 kts 220°
2026-05-06 11:16 -22.97576 118.52660 7012 ft 297 kts 220°
2026-05-06 11:17 -22.99206 118.51294 6835 ft 290 kts 201°
2026-05-06 11:17 -23.01059 118.50521 6674 ft 285 kts 192°
2026-05-06 11:17 -23.02958 118.49883 6503 ft 284 kts 191°
2026-05-06 11:17 -23.04862 118.49269 6330 ft 282 kts 191°
2026-05-06 11:18 -23.06733 118.48721 6153 ft 277 kts 182°
2026-05-06 11:18 -23.08622 118.48792 6040 ft 266 kts 163°
2026-05-06 11:18 -23.10439 118.49195 6029 ft 264 kts 161°
2026-05-06 11:18 -23.12214 118.49591 5925 ft 255 kts 162°
2026-05-06 11:19 -23.13951 118.49934 5779 ft 248 kts 163°
2026-05-06 11:19 -23.15636 118.50233 5636 ft 241 kts 164°
2026-05-06 11:19 -23.17284 118.50507 5507 ft 235 kts 164°
2026-05-06 11:19 -23.18893 118.50767 5376 ft 229 kts 164°
2026-05-06 11:20 -23.20453 118.51016 5324 ft 223 kts 164°
2026-05-06 11:20 -23.21926 118.51431 5303 ft 213 kts 141°
2026-05-06 11:20 -23.22795 118.52588 5299 ft 187 kts 103°
2026-05-06 11:20 -23.22869 118.53897 5391 ft 170 kts 81°
2026-05-06 11:21 -23.22415 118.55081 5360 ft 171 kts 64°
2026-05-06 11:21 -23.21820 118.56200 5331 ft 170 kts 64°
2026-05-06 11:21 -23.21237 118.57301 5265 ft 162 kts 65°
2026-05-06 11:21 -23.20685 118.58349 5019 ft 159 kts 65°
2026-05-06 11:22 -23.20143 118.59386 4774 ft 156 kts 65°
2026-05-06 11:22 -23.19625 118.60374 4580 ft 145 kts 65°
2026-05-06 11:22 -23.19122 118.61315 4358 ft 143 kts 64°
2026-05-06 11:22 -23.18626 118.62239 4126 ft 142 kts 65°
2026-05-06 11:23 -23.18152 118.63180 3889 ft 141 kts 67°
2026-05-06 11:23 -23.17698 118.64124 3719 ft 141 kts 66°
2026-05-06 11:23 -23.17215 118.65060 3590 ft 141 kts 66°
2026-05-06 11:23 -23.16734 118.65968 3378 ft 138 kts 65°
2026-05-06 11:24 -23.16275 118.66880 3162 ft 136 kts 67°
2026-05-06 11:24 -23.15828 118.67796 2954 ft 137 kts 65°
2026-05-06 11:24 -23.15320 118.68685 2717 ft 141 kts 62°
2026-05-06 11:24 -23.14703 118.69518 2475 ft 139 kts 54°
2026-05-06 11:25 -23.14041 118.70261 2318 ft 133 kts 48°
2026-05-06 11:25 -23.13586 118.70762 2344 ft 49 kts 45°
2026-05-06 11:25 -23.13391 118.70983 2353 ft 35 kts 45°
2026-05-06 11:25 -23.13234 118.71153 2360 ft 27 kts 44°
2026-05-06 11:26 -23.13115 118.71286 2364 ft 22 kts 46°
2026-05-06 11:26 -23.13024 118.71362 2367 ft 8 kts 29°
2026-05-06 11:26 -23.13026 118.71373 2367 ft 3 kts 193°
2026-05-06 11:26 -23.13067 118.71333 2366 ft 13 kts 225°
2026-05-06 11:27 -23.13145 118.71252 2363 ft 16 kts 224°
2026-05-06 11:27 -23.13229 118.71165 2360 ft 16 kts 224°
2026-05-06 11:27 -23.13311 118.71072 2356 ft 17 kts 228°
2026-05-06 11:27 -23.13399 118.70971 2353 ft 20 kts 225°
2026-05-06 11:28 -23.13506 118.70853 2349 ft 22 kts 225°
2026-05-06 11:28 -23.13619 118.70728 2342 ft 23 kts 225°
2026-05-06 11:28 -23.13711 118.70633 2337 ft 11 kts 222°
2026-05-06 11:28 -23.13731 118.70564 2334 ft 11 kts 306°
2026-05-06 11:29 -23.13691 118.70511 2333 ft 8 kts 286°
2026-05-06 11:29 -23.13702 118.70439 2331 ft 10 kts 256°
2026-05-06 11:29 -23.13708 118.70412 2330 ft 3 kts 256°
2026-05-06 11:29 -23.13698 118.70398 2330 ft 2 kts 351°
2026-05-06 11:30 -23.13686 118.70395 2330 ft 1 kts 346°
2026-05-06 11:30 -23.13685 118.70395 2330 ft 0 kts 346°